Location: Ebenezer
(18.2167°N, 63.0667°W)
Time: 07:15:27
(UTC+00:00)

CSL-04 Rocket - Pass Details

Date: 26 January 2020
Orbit: 806 x 860 km, 99.0° (Epoch: 20 February)

Event Time Altitude Azimuth Distance (km) Brightness Sun altitude
Rises 23:06:57 0° 166° (SSE) 3,371 6.8 -15.3°
Reaches altitude 10° 23:09:17 10° 166° (SSE) 2,446 6.1 -15.9°
Maximum altitude 23:14:43 87° 80° (E) 851 3.6 -17.1°
Drops below altitude 10° 23:20:15 10° 348° (NNW) 2,481 6.1 -18.4°
Sets 23:22:38 0° 348° (NNW) 3,423 6.8 -18.9°
